Wind_Speed
7 10 9 8 10 12 14 19 23 23 25 27 28 29 29 28 29 29 29 30 29 28 27 27 26 26 26 26 25 23 20 19 20 22 22 21 20 19 20 21 21 20 19 18 18 17 15 14 14 13 11 11 11 9 10 9 8 8 7 7 7 6 5
5 9 9 8 10 11 15 22 24 22 25 28 28 29 29 29 29 30 30 31 30 29 29 28 27 26 26 25 25 24 22 20 20 21 22 21 21 20 21 21 21 20 19 18 17 16 15 14 13 13 12 12 11 10 11 11 10 9 8 8 8 7 7
4 7 9 9 10 11 14 20 23 22 25 28 29 29 29 30 31 31 31 31 31 29 29 29 28 26 25 25 25 24 22 21 21 21 21 21 21 21 22 21 20 19 18 19 18 17 16 15 14 13 13 13 13 12 12 12 12 11 10 9 8 8 8
4 5 7 8 9 12 15 20 22 22 26 30 31 31 31 32 33 32 32 32 31 30 29 29 29 28 26 25 25 24 23 22 22 21 21 20 20 21 21 21 21 19 18 18 19 17 16 16 15 14 14 14 14 14 13 13 13 13 12 11 9 9 9
5 5 5 7 7 9 13 19 22 23 26 30 32 32 33 33 32 31 32 32 32 31 30 29 28 28 27 26 24 24 24 24 23 22 21 20 20 20 20 21 21 19 18 17 17 17 16 16 15 15 15 15 14 14 14 13 12 12 13 12 10 9 9
6 5 5 8 9 9 13 19 23 24 27 30 32 32 32 32 31 31 31 31 31 30 29 29 28 27 27 27 24 24 25 25 24 23 21 19 20 19 19 20 19 19 19 17 16 16 17 17 16 15 16 15 13 14 14 13 11 10 12 13 11 10 9
8 6 6 9 9 9 13 20 24 25 27 30 32 32 32 32 31 31 31 31 31 30 28 28 28 26 27 27 25 25 25 26 25 24 22 20 19 20 19 19 18 18 18 17 17 17 17 18 17 16 16 16 14 14 15 14 12 10 10 12 12 11 10
7 5 6 10 10 9 13 19 23 25 27 29 30 32 32 31 31 31 31 31 31 30 29 29 29 28 27 26 26 26 24 25 25 24 23 21 20 20 20 19 19 19 18 18 18 18 17 17 18 17 17 17 16 16 15 14 13 12 12 12 12 11 10
5 2 4 7 10 10 14 20 24 25 27 28 30 32 31 31 31 31 31 31 30 30 30 30 29 28 28 26 25 25 25 24 24 23 22 22 22 21 21 20 19 18 18 18 18 18 17 17 17 17 17 17 17 17 16 15 13 13 14 13 13 12 11
5 1 4 5 7 9 14 20 22 23 25 26 28 31 32 31 31 31 31 30 30 31 30 30 29 28 28 28 26 25 24 25 25 24 23 21 21 22 20 20 20 19 18 18 18 18 18 18 18 18 17 16 16 16 16 16 15 15 14 14 13 13 11
6 1 3 5 3 6 12 15 17 21 24 25 27 29 30 31 31 31 32 31 31 31 30 29 29 28 28 28 28 26 25 26 26 26 25 23 21 22 20 19 20 20 20 19 19 19 18 18 18 19 18 17 16 15 15 16 16 16 16 15 14 13 12
6 2 2 4 4 1 7 10 16 21 23 24 26 29 30 31 32 31 32 33 33 32 31 31 30 29 29 29 29 29 27 27 27 27 26 25 23 23 22 21 21 21 21 20 20 20 19 18 18 18 19 18 17 16 16 16 17 17 16 15 15 14 13
9 5 0 2 4 4 3 1 6 18 25 26 26 29 31 31 32 32 32 33 34 33 32 32 31 30 30 29 30 30 29 29 29 27 26 25 24 23 22 22 22 22 21 20 20 21 20 20 20 19 19 19 18 18 16 15 16 16 16 16 15 14 14
11 8 3 3 4 5 7 7 8 4 16 27 28 28 31 33 33 34 34 34 34 34 33 33 33 32 31 31 31 30 29 29 29 28 26 24 23 23 22 23 23 22 21 21 20 21 21 20 20 20 20 19 19 19 17 16 16 15 15 15 15 15 14
12 10 6 5 5 6 7 7 7 11 9 15 29 29 28 30 32 33 34 34 34 33 33 33 33 33 33 32 32 31 29 28 27 26 26 25 24 23 23 23 24 23 23 23 22 22 22 21 20 20 21 18 18 20 19 17 16 15 15 15 14 15 15
9 8 6 6 6 6 7 8 9 3 12 9 16 27 28 29 31 31 30 31 32 32 33 33 32 33 34 34 33 32 30 29 28 26 25 25 25 25 25 24 25 26 26 25 24 24 24 22 21 21 21 18 18 21 20 18 16 16 16 16 16 15 15
3 3 5 5 4 5 7 8 10 11 2 8 5 9 21 26 29 32 32 31 31 31 31 32 32 31 33 34 34 33 31 30 28 27 27 25 23 24 26 24 22 25 28 28 27 26 25 23 22 22 21 20 19 20 20 19 17 17 17 18 18 18 17
6 7 6 5 4 4 5 6 7 9 10 7 4 2 10 18 22 23 24 28 33 33 32 32 32 31 32 33 32 31 32 30 28 27 25 21 18 20 23 22 19 20 24 27 27 27 25 23 23 22 21 21 21 20 20 20 19 18 19 19 19 19 19
7 6 3 3 3 3 3 6 9 10 12 11 7 4 5 9 12 10 6 3 12 23 25 23 21 20 21 24 23 24 26 27 27 27 25 21 17 16 18 19 18 18 19 22 25 25 24 23 23 23 23 22 21 20 20 21 21 21 21 20 19 19 19
7 6 2 1 2 1 2 4 9 14 14 12 9 7 12 11 8 9 8 8 7 4 12 15 15 13 13 15 17 17 18 19 18 16 15 17 18 19 19 19 19 18 17 17 19 21 21 21 21 22 22 22 20 20 21 21 21 21 21 21 20 19 19
9 8 6 4 2 2 3 5 7 10 14 14 11 9 16 19 13 8 9 6 1 2 6 13 19 20 16 16 18 18 16 16 15 11 5 3 7 12 15 16 18 18 17 16 16 17 18 19 19 20 20 20 20 20 20 20 20 19 19 19 18 17 17
7 8 8 8 8 8 9 9 10 12 15 15 12 10 13 17 14 9 8 10 11 10 9 10 15 18 17 16 16 15 13 14 16 16 12 8 8 8 8 10 15 16 16 15 16 16 16 17 18 18 19 19 19 19 19 18 17 17 15 15 14 14 14
6 7 8 10 14 17 17 15 14 14 16 16 15 13 13 15 15 15 14 13 13 10 8 6 6 8 11 12 10 9 11 13 14 13 15 17 18 15 11 12 14 14 13 12 13 15 16 16 15 15 16 17 18 18 17 17 16 15 14 13 12 12 12
8 8 8 9 13 17 19 20 17 14 16 18 18 15 14 13 13 15 16 14 10 8 9 10 8 5 6 7 6 6 9 13 13 11 12 16 18 18 16 16 17 16 13 11 12 14 14 14 14 13 13 14 15 14 14 14 14 13 13 12 12 12 12
9 11 10 10 12 14 17 20 18 15 16 19 18 16 16 15 14 15 14 12 10 9 8 9 8 8 8 7 7 8 9 11 12 12 12 13 15 17 18 17 15 12 12 12 13 13 13 12 12 11 10 10 11 11 11 11 10 9 10 10 11 11 11
10 11 12 11 12 13 14 16 17 16 17 18 18 18 19 18 17 17 16 13 11 10 9 8 7 8 8 8 9 11 11 10 10 11 12 14 16 19 20 18 13 9 8 9 10 12 12 11 10 10 10 9 8 8 8 8 7 6 6 7 9 11 11
14 13 13 13 13 13 15 17 18 19 18 17 17 18 18 19 20 20 19 17 15 14 12 11 9 9 9 9 11 13 11 10 9 10 11 13 15 18 17 14 12 10 9 8 8 9 9 9 9 10 10 9 8 7 7 7 6 6 5 5 8 10 11
16 15 15 14 13 13 15 16 17 19 18 16 15 16 18 20 21 21 20 20 19 16 15 13 12 14 16 17 16 13 11 11 11 12 12 11 13 13 11 9 10 11 10 10 9 8 8 9 9 10 10 11 11 12 14 14 12 10 8 6 6 6 8
14 14 15 15 14 13 14 15 15 17 17 16 16 16 19 22 21 20 21 21 19 16 16 15 15 17 21 23 22 19 16 15 15 15 15 13 13 13 10 8 9 10 11 11 10 10 11 11 12 14 15 14 14 15 16 17 16 14 12 11 9 8 7
14 15 15 16 15 15 16 16 16 17 18 17 18 18 19 21 21 20 20 18 16 16 16 16 16 17 19 20 21 20 19 18 18 18 17 16 15 14 13 11 10 10 11 12 12 12 13 14 15 17 16 14 14 15 16 17 17 14 13 13 12 12 11
12 15 16 15 15 16 16 16 16 16 16 16 17 18 17 18 19 18 15 14 13 13 14 14 14 15 15 15 16 16 17 18 18 16 15 15 15 15 14 12 12 11 10 11 12 10 10 11 13 14 15 15 15 15 16 16 16 14 13 12 11 11 10
9 12 14 15 15 15 15 15 14 14 13 13 13 14 14 15 16 15 13 11 11 10 11 12 13 13 13 12 11 10 12 13 12 11 10 11 11 11 12 12 13 14 13 12 12 11 10 11 12 13 14 15 15 15 15 15 14 13 12 11 9 9 8
8 9 11 13 13 13 13 13 12 11 11 9 9 9 11 12 13 13 11 10 9 9 9 10 10 11 11 11 10 8 8 8 8 7 7 7 8 8 9 9 11 13 13 12 12 12 12 11 12 15 16 15 14 14 14 13 12 10 9 8 7 7 6
8 9 9 10 12 13 13 12 11 10 9 8 7 7 9 10 10 9 8 8 8 8 8 8 7 7 8 9 10 7 6 7 8 6 5 5 8 10 11 11 12 13 13 12 11 11 11 11 13 17 20 18 16 15 15 13 11 9 7 7 6 6 5
9 10 11 13 14 14 13 12 11 9 8 7 6 6 7 8 7 6 6 6 7 7 7 6 5 6 7 7 6 6 7 9 10 10 9 9 11 12 13 13 14 14 14 13 12 11 10 10 13 17 19 18 16 14 13 12 10 8 7 6 6 6 6
13 13 15 17 18 16 15 14 12 11 9 8 6 6 7 7 7 6 4 4 5 7 6 5 6 7 7 6 6 8 10 11 13 14 15 15 14 13 13 13 12 12 12 12 12 11 9 9 11 12 13 13 12 11 10 9 8 7 6 5 5 5 5
16 16 17 19 19 17 16 15 13 12 11 10 8 8 8 8 7 5 4 3 4 6 6 6 8 9 8 8 9 10 11 12 14 15 16 15 14 14 13 13 11 10 10 10 10 10 10 10 11 10 8 7 8 8 8 7 6 5 5 4 3 3 3
13 14 15 17 18 17 16 14 13 12 11 9 8 9 9 8 6 4 3 3 3 4 4 5 6 7 7 9 10 9 10 12 14 14 13 12 12 12 11 11 11 11 11 11 10 11 10 10 10 10 9 8 8 8 8 7 6 5 4 4 3 2 2
Wind_Direction
183 173 172 172 166 166 167 169 171 169 170 174 176 177 178 181 183 184 186 189 191 194 196 197 198 199 200 199 199 201 201 200 201 201 201 201 202 201 197 197 201 204 205 207 207 209 214 216 216 213 205 203 206 207 210 215 213 212 220 225 223 230 237
203 179 170 173 170 170 169 171 173 168 167 173 177 177 179 181 183 184 186 189 192 194 196 197 200 202 202 202 201 202 201 202 202 201 203 204 205 205 203 203 207 209 211 211 210 212 216 218 215 211 209 210 209 206 210 217 216 216 222 221 217 221 226
229 192 175 173 173 174 171 171 174 169 167 173 176 177 180 182 185 187 187 189 192 194 195 197 200 202 203 202 201 201 201 202 201 199 201 205 206 207 207 209 211 213 214 213 212 213 214 217 216 215 217 216 213 211 214 220 221 224 228 221 216 220 225
222 208 178 167 170 174 172 172 174 169 169 175 177 179 182 184 186 188 189 191 192 193 195 197 200 201 201 201 201 201 200 199 200 201 202 205 207 207 208 211 213 214 214 211 213 214 212 215 219 223 223 219 217 216 219 226 229 232 231 223 220 225 229
206 213 174 156 173 183 176 176 176 170 170 175 178 180 182 183 185 187 190 192 193 195 196 197 199 200 201 202 202 202 201 199 200 202 203 205 207 208 209 211 213 213 212 209 211 212 210 214 222 224 217 215 219 219 220 230 235 232 225 220 224 232 235
195 208 186 170 186 192 179 179 180 175 172 174 178 180 180 181 184 186 190 192 194 197 198 197 199 201 203 203 204 203 202 202 203 203 204 204 205 208 209 208 210 211 210 210 213 212 211 216 220 216 210 212 221 221 221 230 236 227 220 221 228 236 241
188 193 195 185 188 192 182 179 181 180 176 174 176 179 180 181 184 186 188 191 193 196 198 198 200 202 205 205 205 205 203 204 205 205 205 205 207 211 211 210 210 210 210 213 217 216 213 215 216 215 215 218 222 221 222 231 234 227 223 227 232 237 243
179 180 199 193 187 191 184 177 178 179 176 171 172 177 179 181 183 185 187 189 192 195 198 199 200 203 205 206 205 206 206 205 206 205 206 208 211 212 213 213 213 212 214 216 219 219 214 213 215 218 221 223 223 221 222 229 233 229 229 234 238 242 244
162 178 228 204 186 188 185 176 175 176 173 171 171 173 177 180 182 184 187 189 191 194 198 200 201 203 205 205 205 207 208 206 205 205 207 211 214 214 214 214 213 212 214 216 218 219 215 214 217 219 221 223 223 221 221 227 231 231 230 232 238 245 247
171 205 288 241 192 185 184 176 173 173 172 171 172 173 175 179 182 184 186 189 190 194 198 199 201 203 205 205 204 207 209 207 205 206 209 213 215 214 214 215 214 212 215 217 218 218 214 215 220 221 220 221 222 220 220 223 226 229 229 230 236 243 247
174 147 313 281 236 188 185 175 171 174 174 172 173 175 176 177 180 183 185 188 192 194 197 199 200 202 205 206 205 206 209 210 208 209 211 213 212 213 216 218 215 214 216 219 220 220 216 215 219 222 221 221 221 221 222 225 229 230 229 230 235 240 245
167 146 335 321 346 273 200 181 173 174 173 174 174 175 177 179 180 183 186 190 193 196 196 198 200 201 204 206 206 208 211 212 210 210 212 213 214 217 219 219 216 215 218 221 221 220 219 217 219 221 221 222 223 221 223 229 231 230 228 229 233 238 245
169 174 143 23 31 26 12 344 195 179 172 173 176 176 177 180 182 183 187 191 194 197 197 197 199 201 204 205 206 208 212 213 211 210 211 213 215 218 219 217 217 218 218 219 220 220 219 220 223 224 224 226 225 221 222 226 227 226 228 230 233 237 244
169 169 141 82 62 64 60 25 343 252 183 174 174 177 179 181 184 187 189 192 195 196 197 197 199 201 203 204 205 209 212 212 211 211 213 213 215 219 219 215 216 220 219 216 218 219 218 218 221 224 227 229 228 223 221 222 223 225 228 230 231 235 242
174 178 160 120 94 82 86 81 34 343 295 193 175 176 179 181 185 188 190 193 195 196 196 196 198 200 202 202 204 208 211 210 210 213 216 216 217 221 223 221 217 218 219 218 218 218 217 217 219 222 224 226 226 223 222 223 225 229 231 230 229 233 241
171 176 160 132 127 125 109 104 112 59 321 288 184 174 176 180 183 185 188 191 193 194 196 197 198 199 200 202 204 208 210 210 212 215 217 219 222 222 224 225 222 221 221 221 221 219 216 216 216 217 220 221 220 220 223 227 229 231 234 233 233 235 240
43 69 87 88 83 111 115 108 124 137 92 347 342 168 167 173 179 181 183 187 190 192 194 196 198 199 200 202 205 207 209 211 213 215 218 222 225 224 224 226 225 225 225 224 222 221 217 216 214 214 217 220 220 221 224 228 228 228 229 230 232 235 238
41 36 55 80 56 49 92 111 112 118 117 96 33 44 149 160 168 173 178 183 186 189 193 195 196 198 200 202 205 206 208 210 212 213 215 218 220 223 225 223 217 217 221 223 223 221 218 215 215 214 214 215 217 220 223 225 227 227 228 230 232 235 238
69 60 65 119 123 87 86 113 118 107 96 100 105 80 101 144 152 133 94 117 178 179 181 183 183 187 193 196 201 206 208 211 213 212 214 217 218 220 217 209 201 201 209 215 218 218 216 216 217 216 213 213 216 222 224 224 226 229 233 237 236 235 236
90 93 102 150 147 81 47 95 122 126 110 93 95 70 46 57 107 122 90 28 10 122 152 157 162 171 177 180 190 200 205 209 210 209 215 219 218 216 211 203 198 196 195 197 201 204 206 209 211 212 212 212 215 221 223 222 224 229 234 238 240 241 241
110 107 103 116 110 42 38 45 60 94 102 94 98 88 63 64 79 115 138 150 209 196 169 171 177 182 180 178 187 193 195 198 197 193 200 228 218 217 214 207 202 198 193 186 185 189 192 194 195 197 200 202 205 211 214 215 218 222 228 234 240 242 243
104 103 101 116 121 109 99 80 59 72 90 98 109 112 92 92 103 122 154 187 207 208 200 194 194 195 192 191 196 194 189 192 196 196 200 206 214 226 231 220 212 206 198 188 184 187 189 189 190 191 191 191 195 200 203 204 207 210 214 222 227 229 231
56 67 81 99 108 109 106 99 88 86 92 99 108 116 115 115 125 141 160 184 201 196 173 156 173 203 213 212 205 191 188 197 200 201 201 202 207 219 241 250 238 224 213 202 195 196 196 196 196 195 193 191 193 199 202 202 205 208 209 212 214 214 214
59 64 74 85 93 100 104 103 100 96 97 98 99 105 115 119 128 142 151 159 163 146 126 119 116 139 202 214 204 181 186 195 196 196 202 207 211 217 233 252 252 239 228 219 211 207 204 202 199 198 199 197 196 199 204 205 206 209 210 211 211 210 209
74 77 80 81 85 93 102 108 110 110 108 102 97 102 113 121 129 132 129 132 139 129 119 123 127 133 148 166 172 172 181 188 190 195 205 217 224 225 230 241 243 233 224 218 215 212 207 203 200 196 193 196 198 200 203 204 204 207 212 214 214 213 211
80 80 81 78 80 88 96 101 101 97 95 96 97 103 112 119 121 115 110 115 123 116 113 127 140 146 150 149 140 140 149 163 178 193 204 213 220 224 227 229 225 223 221 210 203 203 201 198 194 184 175 177 184 187 189 191 190 191 201 213 218 216 216
81 80 83 85 88 90 89 89 89 86 87 95 103 107 113 116 113 108 107 107 100 91 94 107 121 130 135 134 127 125 131 141 154 174 189 199 208 218 226 230 229 229 223 203 191 187 178 169 165 162 156 153 152 139 124 124 134 147 169 199 211 213 216
85 85 90 95 97 95 89 85 86 87 87 93 99 101 105 107 103 100 101 98 93 93 99 105 113 114 110 110 114 121 134 147 153 159 168 179 192 201 213 225 226 221 209 200 197 179 151 142 144 139 129 125 123 114 104 100 104 112 123 147 173 187 199
90 90 95 98 99 101 99 91 88 89 90 91 90 90 97 100 96 94 97 98 97 102 107 109 110 107 103 107 113 120 129 138 143 146 152 163 170 169 167 174 184 185 180 179 177 160 145 144 138 125 116 114 114 111 107 103 102 102 103 107 111 118 136
98 98 99 99 101 104 102 97 92 91 91 93 95 98 101 101 99 97 99 100 102 105 107 106 102 96 94 99 108 113 119 126 131 133 135 140 143 139 132 129 134 140 147 152 150 144 142 143 135 125 124 125 122 114 109 107 106 103 98 95 97 102 106
108 109 108 106 106 107 105 101 98 94 91 95 102 107 108 108 108 107 106 110 114 114 112 110 105 99 95 97 102 107 110 114 117 116 116 119 122 119 114 110 111 114 122 134 138 137 142 147 144 137 134 133 127 118 113 114 113 109 104 99 97 97 96
117 116 115 112 111 111 111 109 107 103 101 104 107 110 114 116 116 115 116 122 125 124 123 119 110 104 100 96 98 104 109 113 114 108 105 109 112 110 107 109 115 117 119 123 122 120 130 151 163 159 147 138 132 128 126 125 120 112 107 103 97 91 85
141 134 126 123 121 120 119 118 117 114 113 113 111 114 120 123 121 120 125 128 127 131 139 131 111 102 101 96 95 104 116 122 123 118 112 115 119 118 116 118 125 128 127 124 119 114 117 134 158 162 154 146 139 133 129 126 121 115 109 102 92 86 77
174 165 149 142 138 133 128 126 124 120 115 110 106 108 117 121 122 123 127 129 126 132 143 138 118 111 111 102 96 106 128 134 137 147 158 150 135 128 124 122 124 124 120 116 116 116 116 127 147 159 160 155 146 133 124 120 118 114 108 97 88 82 71
164 163 156 153 152 146 139 137 137 134 125 117 115 117 123 128 129 126 126 133 138 139 138 135 131 133 132 120 106 109 127 141 153 168 174 160 140 129 121 116 115 113 108 103 101 102 107 119 139 153 158 156 146 134 123 118 112 105 96 83 72 65 54
132 135 137 140 142 141 139 138 140 135 125 120 124 133 144 146 141 132 124 131 147 146 132 125 134 135 128 130 140 138 135 141 153 160 160 154 147 136 123 114 109 108 106 101 98 99 103 109 120 136 146 145 138 130 120 110 101 92 81 65 49 38 30
124 130 135 138 138 137 136 138 140 135 127 121 117 121 136 144 138 128 117 114 136 145 132 124 134 134 119 119 140 150 146 142 146 149 148 146 145 140 131 122 114 105 100 98 98 101 107 110 114 117 120 123 125 121 110 99 89 79 68 56 42 25 8
124 133 139 143 143 144 145 147 147 143 137 133 125 120 126 134 133 133 136 129 136 150 147 141 145 143 127 120 129 145 154 152 149 148 147 146 147 148 144 137 128 118 108 102 99 98 102 107 112 112 105 99 98 99 99 95 89 81 70 55 41 16 335
Height
799 799 800 801 803 804 806 809 812 815 818 820 823 826 828 830 832 834 836 838 839 841 843 845 846 847 848 849 851 852 853 854 855 856 856 858 859 860 860 861 862 863 864 865 865 866 867 868 868 869 869 870 870 870 871 871 872 872 872 872 873 873 873
799 799 799 800 802 803 804 807 810 813 815 819 822 824 826 828 830 832 834 836 838 840 842 843 845 846 847 849 850 851 852 853 853 855 856 856 858 858 859 860 861 862 863 864 865 865 866 867 867 868 869 869 870 870 871 871 871 872 872 872 872 872 873
800 798 797 799 800 801 803 805 808 810 813 816 819 822 824 826 828 830 832 834 836 838 840 842 843 845 846 847 848 850 851 852 852 853 854 855 856 857 858 859 860 861 862 863 864 864 865 866 866 867 868 869 869 870 870 871 871 871 871 872 872 872 872
800 797 796 798 798 799 801 803 806 808 811 814 817 819 822 824 827 829 831 833 835 836 838 840 842 843 845 846 847 848 849 850 851 852 853 854 855 856 856 857 858 859 860 861 862 863 864 865 865 866 867 868 868 869 869 870 870 871 871 871 871 871 872
799 796 796 799 800 800 800 801 804 806 809 812 815 818 820 823 826 827 830 831 833 835 836 838 840 842 844 845 846 847 848 849 850 851 852 853 854 855 855 856 857 858 859 860 861 862 863 864 864 865 866 867 867 868 869 869 869 870 870 870 871 871 871
797 796 796 798 800 800 798 799 802 804 807 810 813 816 818 821 824 826 828 830 832 834 835 837 839 841 842 844 845 846 847 848 849 850 851 852 853 854 854 855 856 857 858 859 860 861 861 862 863 864 865 866 866 867 867 868 868 869 869 870 870 870 870
795 795 794 795 797 797 796 798 800 802 805 808 811 815 817 820 822 824 827 829 830 833 834 836 838 839 841 842 844 845 846 847 848 849 850 851 852 852 853 854 855 856 857 857 858 859 860 861 862 863 864 865 865 866 866 867 867 868 869 869 869 869 870
793 793 793 792 793 795 795 796 798 801 804 807 809 812 815 818 820 823 825 827 829 831 833 834 836 838 840 841 843 844 845 846 847 848 850 850 851 852 852 853 854 855 856 856 857 858 859 860 861 862 863 863 864 865 865 866 866 867 868 868 869 869 869
791 792 793 791 790 792 793 794 796 799 802 804 807 810 813 816 818 821 823 825 827 829 831 833 835 836 839 840 842 843 844 846 847 848 849 850 850 851 851 852 853 854 854 855 856 857 857 859 859 860 861 862 863 863 864 865 866 866 867 867 868 868 868
790 791 793 792 789 790 791 792 794 797 800 802 805 808 810 814 816 818 821 824 826 828 829 831 834 836 838 839 841 843 844 845 846 847 848 849 849 850 851 851 852 853 853 854 855 855 856 857 858 859 860 861 861 862 863 864 864 865 866 866 867 867 867
789 790 793 793 790 789 790 791 792 795 797 800 803 806 808 811 814 816 819 822 824 826 828 830 832 834 836 838 840 842 843 844 845 846 847 848 849 849 850 851 851 852 852 853 853 854 855 856 857 857 858 859 860 861 861 862 863 864 864 865 865 866 866
789 790 794 794 792 791 790 790 791 792 795 798 801 804 806 809 812 814 817 819 821 824 826 828 831 833 835 837 839 840 842 843 844 845 846 847 848 848 849 850 850 851 851 852 852 853 854 855 856 856 857 858 859 859 860 861 861 862 863 863 864 865 865
789 792 795 794 792 793 793 794 794 792 793 796 799 801 804 807 809 812 815 817 819 822 824 826 829 831 833 835 837 839 840 841 842 844 845 846 847 847 848 848 849 849 850 850 851 852 853 853 854 855 856 857 857 858 858 859 859 860 861 862 863 863 864
790 793 795 794 793 793 794 799 801 798 794 794 797 800 801 804 807 809 812 815 817 819 821 824 826 828 831 833 835 837 838 840 841 842 844 845 846 846 847 847 848 848 849 849 850 850 851 852 853 854 854 855 856 856 857 857 858 859 860 860 861 862 862
790 792 794 795 793 792 794 797 801 803 801 796 795 797 799 802 805 807 810 812 814 817 819 822 824 826 828 831 832 835 836 838 840 841 843 844 845 845 846 846 847 847 847 848 848 849 849 850 851 852 853 854 854 855 855 856 857 857 858 859 859 860 860
790 792 794 794 792 791 792 794 797 802 804 801 796 795 797 800 802 805 807 809 812 815 817 819 822 824 826 828 830 832 834 837 839 840 842 843 844 844 845 846 846 846 846 846 846 847 847 848 849 850 851 852 852 854 854 855 856 856 857 857 857 858 858
796 797 797 796 795 794 793 793 795 798 802 804 801 797 796 798 800 802 805 807 809 812 814 817 819 821 823 825 827 830 832 835 837 839 840 842 843 843 844 844 844 845 845 845 845 846 846 846 847 847 849 849 850 852 853 854 854 854 855 855 856 856 856
801 802 801 799 798 797 797 796 796 798 800 802 804 802 799 798 800 803 805 806 807 809 812 814 816 819 821 823 826 829 831 833 835 837 839 841 842 842 842 843 843 843 843 843 844 844 845 845 846 846 847 847 848 849 850 851 852 853 853 854 854 855 855
801 804 803 801 798 797 799 798 798 799 800 800 803 804 803 801 801 804 808 811 811 810 811 813 816 819 821 823 826 828 830 833 834 836 839 840 841 841 841 842 842 841 841 841 841 842 843 844 844 845 845 846 846 847 848 849 850 851 851 852 852 853 853
800 803 803 802 799 799 800 800 799 799 799 800 803 805 806 805 803 805 810 815 818 816 813 815 819 821 821 822 824 826 828 831 833 836 839 840 840 841 841 842 841 841 840 840 840 841 841 842 842 843 844 844 844 845 845 847 848 848 849 850 850 851 851
799 800 801 802 802 803 803 803 802 800 799 801 803 805 807 808 806 807 810 815 820 821 818 817 818 819 819 819 821 823 826 828 831 834 837 840 841 841 842 842 841 841 840 840 840 840 840 840 840 841 841 841 842 843 843 844 845 846 847 848 848 849 849
799 797 797 798 800 802 802 803 803 802 800 801 802 804 806 808 809 810 812 814 817 818 817 817 816 816 816 818 820 822 825 828 829 831 834 838 840 841 842 843 842 841 840 840 840 840 840 840 840 840 840 840 840 841 842 842 843 843 844 845 846 847 847
799 799 797 797 798 799 800 801 803 804 803 803 803 804 806 808 809 810 811 813 815 815 815 816 817 817 817 819 821 823 825 827 829 830 832 834 836 837 840 842 842 841 840 840 840 840 839 839 839 839 839 839 840 840 840 841 841 842 843 844 845 845 846
802 802 800 800 801 802 800 800 802 803 805 806 807 808 808 810 810 810 811 813 815 815 815 816 817 817 818 820 822 823 825 826 828 830 831 832 832 832 835 838 840 840 839 839 839 839 838 838 838 838 838 838 839 839 839 840 840 841 841 842 843 844 844
805 805 804 803 804 805 804 803 802 803 804 806 810 812 813 812 812 811 812 812 812 814 815 815 816 817 818 820 821 822 823 825 827 828 830 831 830 830 831 834 837 838 837 837 837 837 838 837 837 837 837 838 838 838 838 839 839 840 840 841 841 842 842
807 808 807 806 806 807 808 806 805 806 806 807 809 811 812 812 812 812 812 812 812 813 814 814 815 816 818 820 821 822 823 824 825 826 827 828 828 829 830 832 834 836 837 836 836 836 836 836 836 836 837 837 838 838 838 838 838 839 839 839 840 840 841
809 809 809 809 808 808 809 808 807 808 809 809 809 808 808 809 810 811 813 813 814 816 816 816 816 815 817 820 822 823 824 825 826 827 827 828 829 830 832 832 833 835 836 837 836 836 835 836 835 836 836 836 837 838 838 837 837 838 838 838 838 838 839
812 812 812 812 811 811 811 810 810 811 812 812 811 809 807 808 810 812 814 815 817 820 820 820 820 820 820 822 823 824 824 824 825 826 827 829 830 831 833 833 834 835 835 836 836 836 836 836 835 835 836 836 836 837 837 837 837 837 838 838 838 838 838
814 815 815 814 814 814 813 813 813 814 815 815 813 812 811 812 814 816 818 819 821 823 823 823 824 824 824 825 826 827 826 825 825 826 828 830 832 832 832 833 833 834 834 835 835 835 835 836 835 835 837 838 838 838 838 837 837 838 839 838 838 838 838
815 816 817 817 817 816 815 816 815 815 816 816 816 816 816 817 818 820 822 824 826 827 827 827 827 826 826 826 827 828 828 828 828 829 830 831 832 832 832 832 832 833 834 835 835 835 836 837 837 837 838 840 841 840 839 839 839 840 841 840 840 840 840
816 817 818 818 819 818 818 817 817 817 818 819 820 821 821 822 822 824 825 827 828 829 829 828 828 827 827 828 828 829 829 829 830 831 831 832 832 832 832 832 832 833 834 834 834 835 837 838 839 839 840 842 842 841 841 841 842 842 842 841 841 842 842
816 818 819 820 821 821 820 820 820 820 821 822 823 824 824 825 825 826 828 829 830 830 830 829 829 828 828 829 830 830 830 830 831 832 833 833 832 832 832 832 832 833 834 834 834 835 837 838 839 841 843 843 842 841 841 841 842 842 842 842 842 842 842
818 819 820 821 822 822 823 823 823 823 823 824 825 826 827 827 827 828 829 830 831 831 831 831 830 830 830 831 831 830 830 831 831 833 834 834 833 833 833 833 833 833 834 835 835 836 837 837 838 841 843 844 843 842 841 841 842 843 843 843 843 843 843
820 820 821 823 823 824 824 825 825 826 826 826 827 828 829 830 830 831 831 831 832 832 832 832 832 832 832 832 831 831 831 831 831 833 834 835 834 834 834 834 834 835 835 835 836 836 837 838 838 840 842 843 843 843 842 842 843 844 845 844 844 844 843
821 822 823 824 825 826 826 827 828 828 828 829 829 830 831 831 832 833 833 834 834 834 834 834 834 833 833 833 832 832 831 831 832 832 834 835 835 835 836 836 836 836 836 836 837 837 838 838 839 840 841 842 842 842 842 843 845 845 845 845 845 844 843
823 824 825 826 827 827 828 829 830 830 830 831 831 831 832 833 834 835 835 835 835 835 835 836 835 835 835 834 834 834 833 833 833 833 833 834 835 835 837 837 838 838 837 838 838 838 839 839 840 841 841 842 842 842 843 844 845 845 845 845 845 844 843
824 825 826 827 828 828 829 830 831 832 832 833 833 833 834 834 835 836 836 836 836 836 836 836 836 836 836 836 836 835 835 835 835 835 835 835 835 836 837 838 839 839 839 839 839 839 840 840 840 841 841 842 842 842 843 843 844 844 844 844 844 844 843
825 826 827 828 828 829 830 831 832 833 834 834 835 835 835 836 836 836 836 836 836 836 836 836 837 837 837 837 837 837 837 836 836 836 837 837 837 838 838 838 839 840 840 840 840 840 841 841 841 841 841 841 842 842 843 843 844 844 844 844 843 843 843